| time (UTC) | temp F | wind direction | speed MPH | gust MPH | rain 1hr in | rain 24hr in | rain mn in | humidity % | barometer mb |
| 20260505151855 | 77 | 197 | 6.0 | 8.0 | 0.00 | 0.00 | 0.00 | 47 | 1013.1 |
| 20260505151352 | 78 | 117 | 2.0 | 3.0 | 0.00 | 0.00 | 0.00 | 51 | 1013.0 |
| 20260505150849 | 77 | 247 | 2.0 | 2.0 | 0.00 | 0.00 | 0.00 | 52 | 1013.1 |
| 20260505150346 | 77 | 238 | 3.0 | 6.0 | 0.00 | 0.00 | 0.00 | 49 | 1013.2 |
| 20260505140305 | 74 | 344 | 0.0 | 0.0 | 0.00 | 0.00 | 0.00 | 53 | 1013.2 |
| 20260505130223 | 64 | 253 | 0.0 | 1.0 | 0.00 | 0.00 | 0.00 | 77 | 1013.0 |
| 20260505124713 | 62 | 247 | 0.0 | 0.0 | 0.00 | 0.00 | 0.00 | 78 | 1013.0 |
| 20260505124210 | 61 | 241 | 1.0 | 1.0 | 0.00 | 0.00 | 0.00 | 80 | 1013.1 |
| 20260505123705 | 61 | 322 | 0.0 | 0.0 | 0.00 | 0.00 | 0.00 | 81 | 1013.0 |
| 20260505123203 | 60 | 324 | 0.0 | 0.0 | 0.00 | 0.00 | 0.00 | 82 | 1013.2 |
| 20260505122659 | 59 | 330 | 1.0 | 1.0 | 0.00 | 0.00 | 0.00 | 82 | 1013.2 |
| 20260505122156 | 59 | 339 | 1.0 | 1.0 | 0.00 | 0.00 | 0.00 | 86 | 1013.1 |
| 20260505121653 | 57 | 140 | 2.0 | 2.0 | 0.00 | 0.00 | 0.00 | 81 | 1013.1 |
| 20260505121149 | 55 | 140 | 2.0 | 2.0 | 0.00 | 0.00 | 0.00 | 89 | 1013.3 |
| 20260505120645 | 54 | 269 | 0.0 | 0.0 | 0.00 | 0.00 | 0.00 | 99 | 1013.4 |
| 20260505120141 | 54 | 296 | 0.0 | 0.0 | 0.00 | 0.00 | 0.00 | 99 | 1013.5 |
| 20260505115635 | 53 | 277 | 0.0 | 0.0 | 0.00 | 0.00 | 0.00 | 99 | 1013.6 |
| 20260505115133 | 52 | 268 | 0.0 | 0.0 | 0.00 | 0.00 | 0.00 | 99 | 1013.5 |
| 20260505114625 | 51 | 247 | 0.0 | 0.0 | 0.00 | 0.00 | 0.00 | 99 | 1013.3 |
| 20260505114121 | 51 | 138 | 2.0 | 2.0 | 0.00 | 0.00 | 0.00 | 99 | 1013.2 |
| 20260505113617 | 50 | 248 | 0.0 | 0.0 | 0.00 | 0.00 | 0.00 | 99 | 1013.3 |
| 20260505113114 | 49 | 304 | 0.0 | 0.0 | 0.00 | 0.00 | 0.00 | 99 | 1013.3 |
| 20260505112610 | 48 | 231 | 0.0 | 0.0 | 0.00 | 0.00 | 0.00 | 99 | 1013.4 |
| 20260505112108 | 48 | 275 | 0.0 | 0.0 | 0.00 | 0.00 | 0.00 | 99 | 1013.0 |
| 20260505111602 | 47 | 75 | 0.0 | 0.0 | 0.00 | 0.00 | 0.00 | 99 | 1013.1 |
| 20260505111058 | 47 | 236 | 0.0 | 0.0 | 0.00 | 0.00 | 0.00 | 99 | 1012.8 |
| 20260505110555 | 47 | 249 | 0.0 | 0.0 | 0.00 | 0.00 | 0.00 | 99 | 1013.0 |
| 20260505102027 | 47 | 151 | 2.0 | 2.0 | 0.00 | 0.00 | 0.00 | 99 | 1012.5 |
| 20260505101526 | 48 | 255 | 0.0 | 0.0 | 0.00 | 0.00 | 0.00 | 99 | 1012.5 |
| 20260505101022 | 47 | 217 | 0.0 | 0.0 | 0.00 | 0.00 | 0.00 | 99 | 1012.5 |
| 20260505100519 | 48 | 244 | 1.0 | 1.0 | 0.00 | 0.00 | 0.00 | 99 | 1012.3 |
| 20260505100016 | 47 | 229 | 0.0 | 1.0 | 0.00 | 0.00 | 0.00 | 99 | 1012.6 |
| 20260505095512 | 48 | 278 | 0.0 | 0.0 | 0.00 | 0.00 | 0.00 | 99 | 1012.4 |
| 20260505095008 | 47 | 319 | 0.0 | 0.0 | 0.00 | 0.00 | 0.00 | 99 | 1012.3 |
| 20260505094505 | 47 | 290 | 0.0 | 0.0 | 0.00 | 0.00 | 0.00 | 99 | 1012.6 |
| 20260505094001 | 48 | 237 | 0.0 | 0.0 | 0.00 | 0.00 | 0.00 | 99 | 1012.3 |
| 20260505093458 | 48 | 265 | 0.0 | 0.0 | 0.00 | 0.00 | 0.00 | 99 | 1012.4 |
| 20260505092955 | 48 | 274 | 0.0 | 0.0 | 0.00 | 0.00 | 0.00 | 99 | 1012.3 |
| 20260505092452 | 48 | 233 | 2.0 | 2.0 | 0.00 | 0.00 | 0.00 | 99 | 1012.4 |
| 20260505091950 | 48 | 356 | 0.0 | 1.0 | 0.00 | 0.00 | 0.00 | 99 | 1012.3 |
| 20260505091447 | 47 | 300 | 0.0 | 0.0 | 0.00 | 0.00 | 0.00 | 99 | 1012.4 |
| 20260505090945 | 47 | 264 | 0.0 | 0.0 | 0.00 | 0.00 | 0.00 | 99 | 1012.3 |
| 20260505090443 | 48 | 271 | 0.0 | 0.0 | 0.00 | 0.00 | 0.00 | 99 | 1012.2 |
| 20260505085940 | 48 | 160 | 1.0 | 1.0 | 0.00 | 0.00 | 0.00 | 99 | 1012.2 |
| 20260505085438 | 48 | 292 | 0.0 | 0.0 | 0.00 | 0.00 | 0.00 | 99 | 1012.2 |
| 20260505084936 | 48 | 270 | 0.0 | 0.0 | 0.00 | 0.00 | 0.00 | 99 | 1012.3 |
| 20260505084434 | 49 | 188 | 0.0 | 1.0 | 0.00 | 0.00 | 0.00 | 99 | 1012.1 |
| 20260505083931 | 49 | 196 | 0.0 | 1.0 | 0.00 | 0.00 | 0.00 | 99 | 1012.3 |
| 20260505083429 | 48 | 184 | 1.0 | 1.0 | 0.00 | 0.00 | 0.00 | 99 | 1012.0 |
| 20260505082925 | 48 | 276 | 0.0 | 0.0 | 0.00 | 0.00 | 0.00 | 99 | 1012.3 |
| 20260505082421 | 49 | 284 | 0.0 | 0.0 | 0.00 | 0.00 | 0.00 | 99 | 1012.0 |
| 20260505081918 | 50 | 249 | 1.0 | 1.0 | 0.00 | 0.00 | 0.00 | 99 | 1012.0 |
| 20260505081415 | 50 | 169 | 2.0 | 2.0 | 0.00 | 0.00 | 0.00 | 99 | 1012.0 |
| 20260505080911 | 50 | 272 | 0.0 | 0.0 | 0.00 | 0.00 | 0.00 | 99 | 1011.9 |
| 20260505080408 | 50 | 219 | 0.0 | 0.0 | 0.00 | 0.00 | 0.00 | 99 | 1011.9 |
| 20260505075903 | 50 | 276 | 0.0 | 0.0 | 0.00 | 0.00 | 0.00 | 99 | 1011.9 |
| 20260505075400 | 50 | 37 | 0.0 | 0.0 | 0.00 | 0.00 | 0.00 | 99 | 1011.7 |
| 20260505074858 | 50 | 316 | 0.0 | 0.0 | 0.00 | 0.00 | 0.00 | 99 | 1011.7 |
| 20260505074355 | 50 | 211 | 1.0 | 1.0 | 0.00 | 0.00 | 0.00 | 99 | 1011.8 |
| 20260505073852 | 50 | 48 | 1.0 | 1.0 | 0.00 | 0.00 | 0.00 | 99 | 1011.9 |
| 20260505073349 | 50 | 232 | 0.0 | 0.0 | 0.00 | 0.00 | 0.00 | 99 | 1011.6 |
| 20260505072846 | 51 | 292 | 0.0 | 0.0 | 0.00 | 0.00 | 0.00 | 99 | 1011.6 |
| 20260505072342 | 51 | 329 | 0.0 | 0.0 | 0.00 | 0.00 | 0.00 | 99 | 1011.7 |
| 20260505071839 | 51 | 290 | 0.0 | 0.0 | 0.00 | 0.00 | 0.00 | 99 | 1011.5 |
| 20260505071335 | 51 | 287 | 0.0 | 0.0 | 0.00 | 0.00 | 0.00 | 99 | 1011.5 |
| 20260505070834 | 51 | 29 | 1.0 | 1.0 | 0.00 | 0.00 | 0.00 | 99 | 1011.4 |
| 20260505070330 | 51 | 269 | 0.0 | 0.0 | 0.00 | 0.00 | 0.00 | 99 | 1011.5 |
| 20260505065825 | 51 | 36 | 1.0 | 1.0 | 0.00 | 0.00 | 0.00 | 99 | 1011.6 |
| 20260505065322 | 51 | 8 | 1.0 | 1.0 | 0.00 | 0.00 | 0.00 | 99 | 1011.7 |
| 20260505064819 | 51 | 346 | 1.0 | 1.0 | 0.00 | 0.00 | 0.00 | 99 | 1011.5 |
| 20260505064316 | 51 | 321 | 0.0 | 0.0 | 0.00 | 0.00 | 0.00 | 99 | 1011.6 |
| 20260505063814 | 51 | 84 | 0.0 | 0.0 | 0.00 | 0.00 | 0.00 | 99 | 1011.4 |
| 20260505063310 | 50 | 307 | 0.0 | 0.0 | 0.00 | 0.00 | 0.00 | 99 | 1011.4 |
| 20260505062806 | 50 | 307 | 0.0 | 1.0 | 0.00 | 0.00 | 0.00 | 99 | 1011.4 |
| 20260505062304 | 50 | 103 | 0.0 | 0.0 | 0.00 | 0.00 | 0.00 | 99 | 1011.4 |
| 20260505061801 | 51 | 323 | 0.0 | 0.0 | 0.00 | 0.00 | 0.00 | 99 | 1011.6 |
| 20260505061259 | 50 | 274 | 0.0 | 0.0 | 0.00 | 0.00 | 0.00 | 99 | 1011.6 |
| 20260505060756 | 50 | 330 | 0.0 | 0.0 | 0.00 | 0.00 | 0.00 | 99 | 1011.6 |
| 20260505060253 | 51 | 307 | 0.0 | 0.0 | 0.00 | 0.00 | 0.00 | 99 | 1011.4 |
| 20260505055748 | 50 | 229 | 0.0 | 0.0 | 0.00 | 0.00 | 0.00 | 99 | 1011.5 |
| 20260505055245 | 50 | 256 | 0.0 | 0.0 | 0.00 | 0.00 | 0.00 | 99 | 1011.4 |
| 20260505054742 | 50 | 279 | 0.0 | 0.0 | 0.00 | 0.00 | 0.00 | 99 | 1011.4 |
| 20260505054240 | 50 | 353 | 0.0 | 1.0 | 0.00 | 0.00 | 0.00 | 99 | 1011.4 |
| 20260505053738 | 50 | 252 | 0.0 | 0.0 | 0.00 | 0.00 | 0.00 | 99 | 1011.1 |
| 20260505053234 | 50 | 280 | 0.0 | 0.0 | 0.00 | 0.00 | 0.00 | 99 | 1011.5 |
| 20260505052731 | 50 | 299 | 0.0 | 0.0 | 0.00 | 0.00 | 0.00 | 99 | 1011.4 |
| 20260505052228 | 50 | 250 | 0.0 | 0.0 | 0.00 | 0.00 | 0.00 | 99 | 1011.5 |
| 20260505051725 | 50 | 267 | 0.0 | 0.0 | 0.00 | 0.00 | 0.00 | 99 | 1011.4 |
| 20260505051223 | 50 | 285 | 0.0 | 0.0 | 0.00 | 0.00 | 0.00 | 99 | 1011.5 |
| 20260505050721 | 50 | 59 | 1.0 | 1.0 | 0.00 | 0.00 | 0.00 | 99 | 1011.4 |
| 20260505050219 | 50 | 262 | 0.0 | 0.0 | 0.00 | 0.00 | 0.00 | 99 | 1011.5 |
| 20260505041648 | 49 | 262 | 0.0 | 0.0 | 0.00 | 0.00 | 0.00 | 99 | 1011.7 |
| 20260505041146 | 49 | 248 | 0.0 | 0.0 | 0.00 | 0.00 | 0.00 | 99 | 1011.6 |
| 20260505040643 | 49 | 213 | 0.0 | 0.0 | 0.00 | 0.00 | 0.00 | 99 | 1011.5 |
| 20260505040140 | 49 | 253 | 0.0 | 0.0 | 0.00 | 0.00 | 0.00 | 99 | 1011.7 |
| 20260505035636 | 49 | 250 | 0.0 | 0.0 | 0.00 | 0.03 | 0.03 | 99 | 1011.5 |
| 20260505035132 | 49 | 249 | 0.0 | 0.0 | 0.00 | 0.03 | 0.03 | 99 | 1011.7 |
| 20260505034629 | 49 | 269 | 0.0 | 0.0 | 0.00 | 0.03 | 0.03 | 99 | 1011.7 |
| 20260505034126 | 50 | 283 | 0.0 | 0.0 | 0.00 | 0.03 | 0.03 | 99 | 1011.4 |
| 20260505033622 | 50 | 244 | 0.0 | 0.0 | 0.00 | 0.03 | 0.03 | 99 | 1011.7 |
| 20260505033121 | 50 | 262 | 0.0 | 0.0 | 0.00 | 0.03 | 0.03 | 99 | 1011.7 |
| 20260505032619 | 50 | 288 | 0.0 | 0.0 | 0.00 | 0.03 | 0.03 | 99 | 1011.8 |
| 20260505032115 | 50 | 227 | 0.0 | 0.0 | 0.00 | 0.03 | 0.03 | 99 | 1012.1 |
| 20260505031612 | 51 | 303 | 0.0 | 0.0 | 0.00 | 0.03 | 0.03 | 99 | 1011.9 |
| 20260505031108 | 51 | 274 | 0.0 | 0.0 | 0.00 | 0.03 | 0.03 | 99 | 1011.9 |
| 20260505030605 | 51 | 279 | 0.0 | 0.0 | 0.00 | 0.03 | 0.03 | 99 | 1011.9 |
| 20260505025557 | 51 | 247 | 0.0 | 0.0 | 0.00 | 0.03 | 0.03 | 99 | 1011.8 |
| 20260505025057 | 51 | 263 | 0.0 | 0.0 | 0.00 | 0.03 | 0.03 | 99 | 1012.0 |
| 20260505024553 | 51 | 239 | 0.0 | 0.0 | 0.00 | 0.03 | 0.03 | 99 | 1012.0 |
| 20260505024050 | 51 | 263 | 0.0 | 0.0 | 0.00 | 0.03 | 0.03 | 99 | 1011.8 |
| 20260505023547 | 51 | 256 | 0.0 | 0.0 | 0.00 | 0.03 | 0.03 | 99 | 1012.1 |
| 20260505023045 | 52 | 217 | 1.0 | 2.0 | 0.00 | 0.03 | 0.03 | 99 | 1012.0 |
| 20260505022542 | 52 | 263 | 0.0 | 0.0 | 0.00 | 0.03 | 0.03 | 99 | 1012.1 |
| 20260505022039 | 52 | 240 | 0.0 | 0.0 | 0.00 | 0.03 | 0.03 | 99 | 1012.1 |
| 20260505021536 | 52 | 264 | 0.0 | 0.0 | 0.00 | 0.03 | 0.03 | 99 | 1012.2 |
| 20260505021032 | 52 | 232 | 0.0 | 0.0 | 0.00 | 0.03 | 0.03 | 99 | 1012.2 |
| 20260505020526 | 52 | 273 | 0.0 | 0.0 | 0.00 | 0.03 | 0.03 | 99 | 1012.0 |
| 20260505020024 | 52 | 326 | 0.0 | 0.0 | 0.00 | 0.03 | 0.03 | 99 | 1012.1 |
| 20260505015521 | 53 | 273 | 0.0 | 0.0 | 0.00 | 0.03 | 0.03 | 99 | 1012.1 |
| 20260505015018 | 53 | 247 | 0.0 | 0.0 | 0.00 | 0.03 | 0.03 | 99 | 1012.1 |
| 20260505014515 | 53 | 262 | 0.0 | 0.0 | 0.00 | 0.03 | 0.03 | 99 | 1011.8 |
| 20260505014012 | 53 | 280 | 0.0 | 0.0 | 0.00 | 0.03 | 0.03 | 99 | 1012.1 |
| 20260505013509 | 53 | 246 | 0.0 | 0.0 | 0.00 | 0.03 | 0.03 | 99 | 1012.0 |
| 20260505013006 | 54 | 292 | 0.0 | 0.0 | 0.00 | 0.03 | 0.03 | 99 | 1011.9 |
| 20260505012505 | 54 | 259 | 0.0 | 0.0 | 0.00 | 0.03 | 0.03 | 99 | 1012.1 |
| 20260505012001 | 55 | 234 | 0.0 | 0.0 | 0.00 | 0.03 | 0.03 | 99 | 1011.7 |
| 20260505011456 | 55 | 247 | 0.0 | 0.0 | 0.00 | 0.03 | 0.03 | 99 | 1011.9 |
| 20260505010954 | 55 | 234 | 0.0 | 0.0 | 0.00 | 0.03 | 0.03 | 99 | 1011.6 |
| 20260505010449 | 55 | 258 | 0.0 | 0.0 | 0.00 | 0.03 | 0.03 | 99 | 1011.8 |
| 20260505005946 | 55 | 311 | 0.0 | 0.0 | 0.00 | 0.03 | 0.03 | 99 | 1011.7 |
| 20260505005442 | 56 | 250 | 0.0 | 0.0 | 0.00 | 0.03 | 0.03 | 99 | 1011.7 |
| 20260505004940 | 56 | 256 | 0.0 | 0.0 | 0.00 | 0.03 | 0.03 | 99 | 1011.6 |
| 20260505004437 | 56 | 33 | 1.0 | 2.0 | 0.00 | 0.03 | 0.03 | 99 | 1011.4 |
| 20260505003934 | 57 | 21 | 1.0 | 1.0 | 0.00 | 0.03 | 0.03 | 99 | 1011.6 |
| 20260505003431 | 57 | 278 | 0.0 | 0.0 | 0.00 | 0.03 | 0.03 | 99 | 1011.5 |
| 20260505002927 | 58 | 268 | 0.0 | 0.0 | 0.00 | 0.03 | 0.03 | 99 | 1011.4 |
| 20260505002423 | 58 | 10 | 0.0 | 1.0 | 0.00 | 0.03 | 0.03 | 99 | 1011.4 |
| 20260505001922 | 58 | 252 | 0.0 | 0.0 | 0.00 | 0.03 | 0.03 | 99 | 1011.4 |
| 20260505001419 | 59 | 25 | 0.0 | 0.0 | 0.00 | 0.03 | 0.03 | 99 | 1011.4 |
| 20260505000916 | 59 | 25 | 0.0 | 0.0 | 0.00 | 0.03 | 0.03 | 99 | 1011.2 |
| 20260505000414 | 60 | 358 | 0.0 | 0.0 | 0.00 | 0.03 | 0.03 | 99 | 1011.1 |
| 20260504235910 | 60 | 259 | 0.0 | 0.0 | 0.00 | 0.03 | 0.03 | 99 | 1011.1 |
| 20260504235408 | 60 | 243 | 0.0 | 0.0 | 0.00 | 0.03 | 0.03 | 99 | 1011.1 |
| 20260504234904 | 60 | 281 | 0.0 | 0.0 | 0.00 | 0.03 | 0.03 | 99 | 1011.0 |
| 20260504234402 | 60 | 248 | 0.0 | 0.0 | 0.00 | 0.03 | 0.03 | 99 | 1011.0 |
| 20260504233858 | 61 | 253 | 0.0 | 0.0 | 0.00 | 0.03 | 0.03 | 99 | 1011.2 |
| 20260504233353 | 61 | 290 | 0.0 | 0.0 | 0.00 | 0.03 | 0.03 | 99 | 1010.8 |
| 20260504232850 | 61 | 274 | 0.0 | 0.0 | 0.00 | 0.03 | 0.03 | 99 | 1010.7 |
| 20260504232348 | 61 | 225 | 0.0 | 0.0 | 0.00 | 0.03 | 0.03 | 99 | 1010.7 |
| 20260504231844 | 61 | 290 | 0.0 | 0.0 | 0.00 | 0.03 | 0.03 | 99 | 1010.9 |
| 20260504231341 | 61 | 294 | 0.0 | 0.0 | 0.00 | 0.03 | 0.03 | 99 | 1011.1 |
| 20260504230837 | 62 | 242 | 0.0 | 0.0 | 0.00 | 0.03 | 0.03 | 99 | 1011.1 |
| 20260504230335 | 62 | 291 | 0.0 | 1.0 | 0.00 | 0.03 | 0.03 | 99 | 1011.1 |
| 20260504225834 | 61 | 357 | 1.0 | 1.0 | 0.00 | 0.03 | 0.03 | 99 | 1010.9 |
| 20260504225329 | 61 | 347 | 1.0 | 1.0 | 0.00 | 0.03 | 0.03 | 97 | 1011.2 |
| 20260504224827 | 61 | 262 | 0.0 | 0.0 | 0.05 | 0.03 | 0.03 | 95 | 1011.1 |
| 20260504224324 | 62 | 280 | 0.0 | 0.0 | 0.19 | 0.03 | 0.03 | 90 | 1011.0 |
| 20260504223821 | 66 | 203 | 3.0 | 3.0 | 0.14 | 0.02 | 0.02 | 77 | 1011.5 |
| 20260504223316 | 71 | 221 | 5.0 | 6.0 | 0.00 | 0.00 | 0.00 | 60 | 1011.9 |
| 20260504222813 | 73 | 224 | 5.0 | 6.0 | 0.00 | 0.00 | 0.00 | 48 | 1011.4 |
| 20260504222310 | 74 | 279 | 3.0 | 5.0 | 0.00 | 0.00 | 0.00 | 47 | 1010.8 |
| 20260504221808 | 74 | 202 | 2.0 | 3.0 | 0.00 | 0.00 | 0.00 | 47 | 1010.7 |
| 20260504221304 | 74 | 243 | 2.0 | 3.0 | 0.00 | 0.00 | 0.00 | 47 | 1010.6 |
| 20260504220801 | 75 | 225 | 7.0 | 10.0 | 0.00 | 0.00 | 0.00 | 46 | 1010.5 |
| 20260504220258 | 75 | 244 | 1.0 | 1.0 | 0.00 | 0.00 | 0.00 | 47 | 1010.2 |
| 20260504215756 | 76 | 287 | 4.0 | 6.0 | 0.00 | 0.00 | 0.00 | 46 | 1010.4 |
| 20260504215252 | 77 | 236 | 3.0 | 3.0 | 0.00 | 0.00 | 0.00 | 46 | 1010.3 |
| 20260504214748 | 77 | 252 | 5.0 | 7.0 | 0.00 | 0.00 | 0.00 | 44 | 1010.4 |
| 20260504214244 | 76 | 253 | 2.0 | 2.0 | 0.00 | 0.00 | 0.00 | 47 | 1010.2 |
| 20260504213741 | 75 | 201 | 3.0 | 3.0 | 0.00 | 0.00 | 0.00 | 45 | 1010.4 |
| 20260504213238 | 75 | 345 | 3.0 | 5.0 | 0.00 | 0.00 | 0.00 | 46 | 1010.4 |
| 20260504212735 | 74 | 249 | 3.0 | 3.0 | 0.00 | 0.00 | 0.00 | 47 | 1010.3 |
| 20260504212231 | 75 | 241 | 3.0 | 3.0 | 0.00 | 0.00 | 0.00 | 47 | 1010.5 |
| 20260504211729 | 75 | 213 | 4.0 | 5.0 | 0.00 | 0.00 | 0.00 | 45 | 1010.5 |
| 20260504211225 | 76 | 227 | 7.0 | 9.0 | 0.00 | 0.00 | 0.00 | 46 | 1010.2 |
| 20260504210723 | 77 | 273 | 3.0 | 5.0 | 0.00 | 0.00 | 0.00 | 44 | 1010.3 |
| 20260504210220 | 76 | 251 | 3.0 | 3.0 | 0.00 | 0.00 | 0.00 | 44 | 1010.2 |
| 20260504205717 | 76 | 258 | 2.0 | 3.0 | 0.00 | 0.00 | 0.00 | 44 | 1010.4 |
| 20260504205214 | 76 | 207 | 4.0 | 5.0 | 0.00 | 0.00 | 0.00 | 45 | 1010.4 |
| 20260504204712 | 75 | 242 | 5.0 | 7.0 | 0.00 | 0.00 | 0.00 | 44 | 1010.5 |
| 20260504204210 | 76 | 179 | 6.0 | 7.0 | 0.00 | 0.00 | 0.00 | 45 | 1010.5 |
| 20260504203709 | 76 | 244 | 4.0 | 6.0 | 0.00 | 0.00 | 0.00 | 44 | 1010.5 |
| 20260504203207 | 75 | 213 | 4.0 | 6.0 | 0.00 | 0.00 | 0.00 | 45 | 1010.7 |
| 20260504202706 | 75 | 44 | 5.0 | 6.0 | 0.00 | 0.00 | 0.00 | 44 | 1010.7 |
| 20260504202204 | 75 | 230 | 10.0 | 14.0 | 0.00 | 0.00 | 0.00 | 44 | 1010.7 |
| 20260504201701 | 75 | 222 | 6.0 | 8.0 | 0.00 | 0.00 | 0.00 | 45 | 1010.5 |
| 20260504201158 | 75 | 147 | 3.0 | 5.0 | 0.00 | 0.00 | 0.00 | 46 | 1010.7 |
| 20260504200655 | 75 | 213 | 3.0 | 8.0 | 0.00 | 0.00 | 0.00 | 46 | 1010.9 |
| 20260504200152 | 75 | 200 | 3.0 | 5.0 | 0.00 | 0.00 | 0.00 | 45 | 1010.9 |
| 20260504195647 | 74 | 294 | 3.0 | 7.0 | 0.00 | 0.00 | 0.00 | 45 | 1010.8 |
| 20260504195144 | 75 | 213 | 2.0 | 2.0 | 0.00 | 0.00 | 0.00 | 47 | 1010.7 |
| 20260504194641 | 75 | 230 | 5.0 | 6.0 | 0.00 | 0.00 | 0.00 | 46 | 1011.0 |
| 20260504194137 | 76 | 248 | 3.0 | 3.0 | 0.00 | 0.00 | 0.00 | 45 | 1011.1 |
| 20260504193633 | 75 | 173 | 1.0 | 2.0 | 0.00 | 0.00 | 0.00 | 46 | 1011.2 |
| 20260504193132 | 74 | 9 | 3.0 | 5.0 | 0.00 | 0.00 | 0.00 | 45 | 1011.2 |
| 20260504192629 | 75 | 174 | 7.0 | 9.0 | 0.00 | 0.00 | 0.00 | 46 | 1011.2 |
| 20260504192127 | 76 | 112 | 3.0 | 6.0 | 0.00 | 0.00 | 0.00 | 45 | 1011.3 |
| 20260504191625 | 75 | 231 | 8.0 | 10.0 | 0.00 | 0.00 | 0.00 | 44 | 1011.5 |
| 20260504191121 | 75 | 203 | 3.0 | 5.0 | 0.00 | 0.00 | 0.00 | 44 | 1011.6 |
| 20260504190617 | 74 | 160 | 3.0 | 3.0 | 0.00 | 0.00 | 0.00 | 44 | 1011.7 |
| 20260504190114 | 75 | 10 | 2.0 | 3.0 | 0.00 | 0.00 | 0.00 | 44 | 1011.7 |
| 20260504185610 | 75 | 217 | 4.0 | 5.0 | 0.00 | 0.00 | 0.00 | 44 | 1011.7 |
| 20260504185107 | 74 | 183 | 4.0 | 5.0 | 0.00 | 0.00 | 0.00 | 45 | 1011.9 |
| 20260504184603 | 74 | 226 | 4.0 | 6.0 | 0.00 | 0.00 | 0.00 | 43 | 1011.8 |
| 20260504184058 | 76 | 174 | 2.0 | 3.0 | 0.00 | 0.00 | 0.00 | 43 | 1012.0 |
| 20260504183555 | 75 | 237 | 2.0 | 2.0 | 0.00 | 0.00 | 0.00 | 45 | 1012.1 |
| 20260504183053 | 73 | 229 | 7.0 | 10.0 | 0.00 | 0.00 | 0.00 | 45 | 1011.9 |
| 20260504182550 | 74 | 150 | 7.0 | 8.0 | 0.00 | 0.00 | 0.00 | 44 | 1012.1 |
| 20260504182048 | 73 | 236 | 7.0 | 9.0 | 0.00 | 0.00 | 0.00 | 43 | 1012.1 |
| 20260504181545 | 72 | 180 | 6.0 | 9.0 | 0.00 | 0.00 | 0.00 | 44 | 1012.4 |
| 20260504181043 | 74 | 249 | 5.0 | 7.0 | 0.00 | 0.00 | 0.00 | 43 | 1012.3 |
| 20260504180541 | 73 | 226 | 7.0 | 8.0 | 0.00 | 0.00 | 0.00 | 44 | 1012.5 |
| 20260504180040 | 75 | 229 | 8.0 | 11.0 | 0.00 | 0.00 | 0.00 | 44 | 1012.4 |
| 20260504175537 | 73 | 237 | 5.0 | 6.0 | 0.00 | 0.00 | 0.00 | 45 | 1012.6 |
| 20260504175034 | 72 | 242 | 5.0 | 7.0 | 0.00 | 0.00 | 0.00 | 47 | 1012.6 |
| 20260504174532 | 73 | 129 | 2.0 | 2.0 | 0.00 | 0.00 | 0.00 | 47 | 1012.7 |
| 20260504174028 | 73 | 216 | 2.0 | 2.0 | 0.00 | 0.00 | 0.00 | 44 | 1012.6 |
| 20260504173525 | 72 | 210 | 3.0 | 5.0 | 0.00 | 0.00 | 0.00 | 47 | 1012.7 |
| 20260504173022 | 71 | 256 | 2.0 | 3.0 | 0.00 | 0.00 | 0.00 | 45 | 1012.7 |
| 20260504172518 | 71 | 173 | 3.0 | 6.0 | 0.00 | 0.00 | 0.00 | 44 | 1012.9 |
| 20260504172015 | 72 | 237 | 5.0 | 7.0 | 0.00 | 0.00 | 0.00 | 46 | 1012.9 |
| 20260504171512 | 73 | 210 | 4.0 | 5.0 | 0.00 | 0.00 | 0.00 | 45 | 1012.9 |
| 20260504171009 | 72 | 227 | 6.0 | 7.0 | 0.00 | 0.00 | 0.00 | 44 | 1013.0 |
| 20260504170505 | 73 | 233 | 4.0 | 5.0 | 0.00 | 0.00 | 0.00 | 45 | 1013.0 |
| 20260504160425 | 71 | 249 | 4.0 | 5.0 | 0.00 | 0.00 | 0.00 | 43 | 1013.2 |